www.pogodaiklimat.ru

Погода и климат >> Архив погоды >> Китай >> Хэбэй >> Вэйчан


ПОГОДА в Вэйчане

  • Прогноз погоды в Вэйчане
  • Монитор погоды в Вэйчане

АРХИВ ПОГОДЫ в Вэйчане

Время (UTC), дата Ветер
(напр.,м/с)
 
Видим.   Явления Облачность Т
(С)
Тd
(С)
f
(%)
Тe
(С)
Тes
(С)
Комфортность P
(гПа)
Po
(гПа)
Тmin
(С)
Tmax
(С)
R
(мм)
R24
(мм)
S
(см)
18 11.08 В 1 30 км ?/? +19.0 +15.3 79 +21 +21 комфорт 1001.6 907.4 +24.7
21 11.08 С 6 30 км н/о +19.2 +14.2 73 +20 +20 1002.2 908.0
00 12.08 С 3 30 км 9/9 600 м
[]
+19.5 +14.5 73 +21 +22 комфорт 1003.1 908.9
03 12.08 С 1 30 км 10/10 600 м
[]
+19.0 +14.7 76 +21 +21 комфорт 1003.9 909.5
06 12.08 С 4 23 км 10/10 600 м
[]
+18.8 +14.9 78 +20 +20 1004.2 909.7 +18.6
09 12.08 С 6 30 км 10/10 600 м
[]
+20.2 +14.6 70 +22 +22 комфорт 1003.6 909.6
12 12.08 С 4 30 км 10/10 600 м
[]
+19.3 +13.7 70 +21 +21 комфорт 1004.5 910.2
18 12.08 В 1 8000 м ?/? +16.0 +15.7 98 +17 +17 1005.6 910.1 +20.8 5
21 12.08 С 1 30 км н/о +16.3 +14.3 88 +17 +17 1005.1 909.8
00 13.08 С 4 30 км 10/10 600 м
[]
+16.9 +13.8 82 +16 +16 1006.0 906.5 0.3
03 13.08 СВ 5 30 км 9/9 600 м
[]
+20.1 +14.0 68 +22 +23 комфорт 1006.2 911.9
06 13.08 С 4 30 км 9/9 600 м
[]
+21.4 +14.8 66 +24 +25 комфорт 1005.4 911.6 +15.9
09 13.08 С 4 30 км 9/9 600 м
[]
+21.6 +15.0 66 +25 +25 комфорт 1004.9 911.2
12 13.08 В 2 30 км 6/6 600 м
[]
+17.5 +15.0 85 +18 +18 1006.2 906.4
18 13.08 С 3 30 км ?/? +13.9 +13.0 94 +13 +13 1006.4 910.2 +22.7
21 13.08 С 3 30 км н/о +12.8 +12.0 95 +11 +11 1006.3 909.7
00 14.08 СВ 2 30 км 8/8 600 м
[]
+16.8 +13.3 80 +17 +18 1006.2 910.9
03 14.08 СЗ 2 30 км 8/8 600 м
[]
+23.1 +14.1 57 +27 +30 душно 1005.3 912.0
06 14.08 С 3 30 км 9/9
[]
+25.8 +8.8 34 +26 +27 жарко 1004.4 912.0 +12.8
09 14.08 В 2 30 км 8/8
[]
+27.3 +10.9 36 +28 +29 жарко 1002.8 911.0
12 14.08 СВ 1 30 км 8/8
[]
+18.4 +12.4 68 +20 +20 1004.5 905.0
18 14.08 СВ 2 30 км ?/? +13.2 +11.6 90 +12 +12 1004.2 908.0 +27.7
21 14.08 С 1 30 км н/о +12.1 +11.2 94 +12 +12 1003.3 906.8
00 15.08 СВ 1 30 км ясно +16.7 +12.7 77 +18 +24 1002.6 907.6
03 15.08 З 1 30 км 6/6
[]
+23.9 +11.9 47 +26 +33 жарко 1000.4 907.8
06 15.08 Ю 3 30 км ясно +28.9 +12.8 37 +30 +42 жарко 996.6 905.8 +12.0
09 15.08 ЮВ 1 30 км 8/8 600 м
[]
+26.4 +13.2 44 +28 +29 жарко 995.4 904.0
12 15.08 В 1 2000 м слаб. ливневой дождь 10/10 600 м
[]
+14.6 +14.0 96 +15 +15 1000.9 905.4 13
18 15.08 С 1 30 км ?/? +15.0 +11.6 80 +16 +16 997.4 902.4 +29.6 2
21 15.08 С 2 30 км н/о +13.6 +12.2 91 +13 +13 997.3 901.9
00 16.08 С 2 21 км слаб. ливневой дождь 10/10 600 м
[]
+14.5 +13.7 95 +14 +14 1000.6 905.1 0.9
03 16.08 СЗ 2 30 км {ливн. осадки} 10/10 600 м
[]
+18.7 +14.2 75 +20 +20 999.7 905.6
06 16.08 СЗ 1 30 км слаб. ливневой дождь 10/10 600 м
[]
+16.6 +14.8 89 +17 +17 1000.8 901.1 +13.6 15
09 16.08 З 1 30 км {ливн. осадки} 9/9 600 м
[]
+18.0 +11.8 67 +19 +19 1000.9 906.5
12 16.08 СЗ 1 30 км {ливн. осадки} 9/9 600 м
[]
+15.4 +10.6 73 +16 +16 1001.9 906.6 0.1
18 16.08 СВ 1 30 км ?/? +11.2 +9.8 91 +11 +11 1002.2 905.5 +19.0
21 16.08 СВ 2 30 км н/о +13.1 +10.5 84 +12 +12 1001.9 905.9
00 17.08 СЗ 4 30 км 8/8 600 м
[]
+17.1 +10.0 63 +17 +17 1002.6 907.8
03 17.08 СЗ 3 30 км 6/6 600 м
[]
+20.0 +9.3 50 +22 +27 комфорт 1004.0 909.9
06 17.08 С 7 30 км 8/8 600 м
[]
+21.2 +8.5 44 +22 +23 комфорт 1004.0 904.1 +11.1
09 17.08 З 4 30 км 3/3 600 м
[]
+22.1 +7.5 39 +23 +24 комфорт 1003.2 909.8
12 17.08 С 1 30 км ясно +14.8 +9.2 69 +15 +15 1005.5 909.7
18 17.08 С 2 30 км ?/? +10.2 +8.3 88 +9 +9 1007.6 910.1 +22.3
21 17.08 СВ 2 30 км н/о +9.2 +7.8 91 +7 +7 1008.6 910.7
00 18.08 С 2 30 км 9/9
[]
+12.2 +9.0 81 +11 +12 1010.6 913.4
03 18.08 З 3 30 км 5/5 600 м
[]
+20.5 +9.4 49 +22 +29 комфорт 1009.0 914.6
06 18.08 С 2 30 км 4/4 600 м
[]
+24.5 +10.0 40 +25 +34 комфорт 1007.1 914.1 +9.1
09 18.08 Ю 2 30 км 3/3 600 м
[]
+25.6 +8.1 33 +26 +28 жарко 1006.2 913.6
12 18.08 штиль 0 30 км ясно +18.6 +11.9 65 +19 +19 1008.3 913.4

 

Местоположение метеостанции Вэйчан (Хэбэй, Китай): широта 41.93 долгота 117.75 высота над уровнем моря 844 м.

В архиве по умолчанию представлена погода в Вэйчане за последнюю неделю. Архивные данные за месяц целиком и за предыдущие месяцы, начиная с января 2011 года, Вы можете получить, выбрав интересующий диапазон дат из раскрывающегося списка и нажав кнопку "Ввод!".


*Определитесь, кто Вы:
робот инопланетянин человек

Внимание! Время в таблицах - всемирное. Для получения местного времени необходимо прибавить поправку, которая равна 8 ч.

Смотрите также архив погоды в соседних городах и на ближайших метеорологических станциях:

Погода в Чифэне (Внутренняя Монголия, Китай) (107 км)
Погода в Чэндэ (Хэбэй, Китай) (107 км)
Погода в Долуне (Внутренняя Монголия, Китай) (110 км)
Погода в Фэннине (Хэбэй, Китай) (122 км)
Погода в Линьси (Внутренняя Монголия, Китай) (187 км)
Погода в Цинлуне (Хэбэй, Китай) (198 км)
Погода в Чаояне (Ляонин, Китай) (228 км)
Погода в Дабейва (Внутренняя Монголия, Китай) (247 км)
Погода в Таншане (Хэбэй, Китай) (254 км)
Погода в Хуайлае (Хэбэй, Китай) (254 км)

Пояснения к столбцам:

Ветер - указаны скорость ветра в м/с - средняя за 10 мин, порывы в срок и между сроками (в фигурных скобках) и направление, откуда дует ветер: С - северный, СВ - северо-восточный, В - восточный, ЮВ - юго-восточный, Ю - южный, ЮЗ - юго-западный, З - западный, СЗ - северо-западный.
Видимость - горизонтальная дальность видимости в метрах или километрах. При видимости от 1 до 10 км при отсутствии осадков обычно наблюдается дымка, при ухудшении видимости до 1 км и менее - туман. В сухую погоду видимость может ухудшаться дымом, пылью или мглою.
Явления - указаны атмосферные явления, наблюдавшиеся в срок или в последний час перед сроком; фигурными скобками обозначены явления, наблюдавшиеся между сроками (за 1-3 часа до срока); квадратными скобками обозначены град или гололедные отложения с указанием их диаметра в мм.
Облачность - указаны через наклонную черту общая и нижняя облачность в баллах и высота нижней границы облаков в метрах; квадратными скобками обозначены формы облаков: Ci - перистые, Cs - перисто-слоистые, Cc - перисто-кучевые, Ac - высококучевые, As - высокослоистые, Sc - слоисто-кучевые, Ns - слоисто-дождевые, Cu - кучевые, Cb - кучево-дождевые. Подробнее классификацию облаков см. в Атласе облаков (PDF).
T - Температура воздуха - температура, измеренная на высоте 2 м над землей.
Td - Температура точки росы - температура, при понижении до которой содержащийся в воздухе водяной пар достигнет насыщения.
f - Относительная влажность воздуха - влажноcть воздуха, измеренная на высоте 2 м над землей.
Te - Эффективная температура - температура, которую ощущает одетый по сезону человек в тени. Характеристика душности погоды. При расчете учитывается влияние влажности воздуха и скорости ветра на теплоощущения человека.
Tes - Эффективная температура на солнце - температура, которую ощущает человек, с поправкой на солнечный нагрев. Характеристика знойности погоды. Зависит от высоты солнца над горизонтом, облачности и скорости ветра. Ночью, в пасмурную погоду, а также при ветре 12 м/с и более поправка равна нулю.
P - Атмосферное давление - приведенное к уровню моря атмосферное давление.
Po - Атмосферное давление - измеренное на уровне метеостанции атмосферное давление.
Tmin - Минимальная температура - минимум температуры воздуха на высоте 2 м над землей.
Tmax - Максимальная температура - максимум температуры воздуха на высоте 2 м над землей.
R - Количество осадков - Количество выпавших осадков за период времени, мм. При наведении курсора мыши на число - период времени, за который выпало указанное количество осадков.
R24 - Количество осадков - Количество выпавших осадков за 24 часа, мм.
S - Снежный покров - Высота снежного покрова, см. При наведении курсора мыши на число - состояние снежного покрова и степень покрытия местности в баллах.